Weather in Oklan

Russia / Kamchatka Krai     62°42′45″N   166°34′45″E
temp.,
°C
wind,
m/s
gust,
m/s
humid.,
%
clouds,
%
prec.,
mm/h
press.,
hPa
HPBL,
m
28 february, sun
sun2800:00−33ene11910 0.0 102919
03:00−35ene11930 0.0 103019
06:00−35ne11920 0.0 102919
09:00−34ne11880 0.0 103019
12:00−30ene11850 0.0 103074
15:00−29n248837 0.0 1028172
18:00−32n228928 0.0 102619
21:00−32n23863 0.0 102525
1 march, mon
mon100:00−31n348418 0.0 102252
03:00−28nne51481100 0.0 1017411
06:00−26nne81980100 0.0 1013626
09:00−26nne122378100 0.0 1010612
12:00−25ne122181100 0.0 1008758
15:00−24ne122184100 0.0 1006801
18:00−23nne101984100 0.0 1005827
21:00−23nne91983100 0.0 1007785
2 march, tue
tue200:00−22nne61782100 0.0 1008753
03:00−21nne51679100 0.0 1010707
06:00−23n4478100 0.0 101152
09:00−25nnw337595 0.0 101330
12:00−21n487794 0.0 1014281
15:00−20n348166 0.0 101690
18:00−23n227561 0.0 101820
21:00−26n01740 0.0 102120
3 march, wed
wed300:00−27s12765 0.0 102319
03:00−29sse118040 0.0 102519
06:00−29sse118159 0.0 102719
09:00−30ene118292 0.0 102919
12:00−26e118181 0.0 102964
15:00−26ne128133 0.0 1028139
18:00−27ne228667 0.0 102623
21:00−27nne2387100 0.0 102390
4 march, thu
thu400:00−25ne41095100 0.1 1017344
03:00−25ne81699100 3.1 1009428
06:00−24ne101798100 6.9 999414
09:00−23ne111798100 1.9 991436
12:00−12ne131995100 5.9 982437
15:000se132396100 2.2 9751396
18:00−14sw8128499 4.7 974391
21:00−16sw9168664 0.0 978752